Temp
22 21 21 22 23 23 24 25 26 26 26 26 25 25 24 24 24 27 27 27 28 27 27 28 28 29 28 27 27 26 26 26 26 26 26 27 27 27 27 26 25 25 23 22 21 21 21 21 20 20 20 19 19 19 19 19 18 18 18 18 18 17 18 18 17 17 17 17 17 17 17 16 17 17 17 17 17 17 17 17 17 17 17 17 17 16
22 21 21 23 24 24 24 25 25 25 25 26 25 24 24 24 25 27 27 26 27 27 27 28 28 27 27 26 25 26 26 26 26 25 26 27 27 27 27 26 25 24 22 21 21 21 21 21 20 19 19 19 18 18 18 19 18 18 18 18 18 17 17 18 17 17 17 17 17 17 17 16 17 17 17 17 17 17 17 17 17 17 17 17 16 16
20 21 22 24 24 25 24 24 24 24 25 25 25 24 23 25 26 26 26 26 27 26 26 27 27 26 26 25 24 25 25 24 24 24 24 25 26 26 26 26 25 24 22 22 21 21 21 21 20 19 18 18 18 18 18 18 18 18 18 18 17 17 17 17 17 17 17 17 17 16 16 16 17 17 17 17 17 17 17 17 17 17 17 16 16 16
20 21 23 24 24 24 23 23 23 24 24 25 25 24 23 25 25 23 25 26 26 26 26 27 26 25 25 25 24 24 24 23 23 24 24 24 24 25 25 25 25 24 23 22 21 21 21 20 20 19 18 18 18 18 17 17 18 18 18 17 17 17 17 17 17 17 17 17 17 16 16 16 17 17 17 17 17 17 17 17 17 17 17 17 16 16
21 23 24 24 23 23 23 23 23 23 23 24 25 24 24 25 25 24 25 26 26 25 27 27 24 24 25 25 25 24 24 24 24 24 23 23 23 24 24 24 24 24 23 23 21 20 20 20 19 19 18 18 18 18 18 18 18 18 17 17 17 17 18 17 17 17 17 16 16 16 17 17 17 17 17 17 17 17 17 17 17 17 17 17 16 16
23 24 24 23 23 23 23 22 23 23 23 23 24 25 26 26 26 26 26 25 23 23 26 26 22 22 25 25 25 25 24 24 24 24 23 23 23 23 23 22 22 22 22 22 20 19 20 20 19 18 18 18 18 18 18 18 18 17 17 17 17 17 17 17 16 16 16 16 16 17 17 17 18 18 17 18 18 18 17 17 17 17 17 16 16 16
23 24 23 23 23 23 23 23 23 24 23 22 24 26 26 26 26 25 25 24 22 22 25 26 22 21 23 24 25 25 25 24 24 24 23 23 22 22 21 21 21 21 21 20 20 19 19 19 19 19 18 18 18 17 17 17 17 17 17 17 17 17 17 17 17 17 16 16 17 17 18 18 18 19 19 18 18 18 18 17 17 17 17 16 16 16
23 23 22 23 23 23 23 23 24 24 23 22 25 25 25 26 25 25 25 24 23 24 24 25 24 22 21 23 24 24 24 25 24 23 23 23 22 21 21 20 20 20 20 20 20 19 19 19 19 18 17 17 17 17 17 17 17 17 17 17 17 17 17 17 17 17 16 17 17 17 18 18 19 19 19 19 18 18 18 17 17 17 17 16 16 16
23 22 22 23 23 23 23 24 24 24 24 24 26 25 25 25 25 26 25 24 25 24 21 23 25 22 21 23 24 24 24 24 23 23 22 22 21 21 21 20 19 19 20 20 19 19 19 19 18 17 17 16 16 16 16 17 17 17 17 17 17 17 17 17 17 17 17 17 17 17 17 18 18 19 19 19 19 18 18 17 17 17 16 16 16 16
22 22 23 23 23 23 24 25 25 24 24 25 25 25 25 25 25 26 25 24 23 22 21 22 23 22 21 22 23 24 24 24 23 22 21 21 20 20 20 19 19 19 19 19 18 18 18 17 17 17 16 16 16 16 16 17 17 17 17 17 17 18 18 18 17 17 17 17 17 17 18 18 18 18 18 18 18 18 18 18 17 17 17 16 16 16
23 23 24 23 23 24 25 25 25 24 25 25 24 24 24 24 25 25 24 24 22 21 21 22 23 23 21 22 24 24 23 24 23 22 20 20 19 19 19 19 18 18 18 18 18 18 17 17 17 17 17 17 17 17 17 17 17 17 17 17 18 18 18 18 17 17 17 17 17 18 18 18 18 18 18 18 18 18 18 18 18 17 17 16 16 16
22 22 23 24 24 25 25 24 24 25 25 24 24 24 22 22 23 22 22 22 21 20 22 23 24 23 21 22 24 23 22 23 23 22 20 19 18 18 18 18 18 18 18 18 18 17 17 17 17 17 17 16 17 17 17 17 17 17 17 18 18 18 18 18 18 18 17 17 17 17 17 18 18 18 18 18 18 18 18 18 18 17 17 16 16 16
22 22 23 23 24 24 24 23 23 23 24 24 24 22 21 21 21 20 21 21 20 21 22 24 24 22 21 22 23 22 22 22 21 20 19 19 18 17 17 17 17 17 17 18 18 17 17 17 17 17 16 16 16 17 17 17 17 17 17 18 18 18 18 18 18 18 18 18 18 17 17 17 17 18 18 18 18 17 17 18 17 17 17 16 16 16
21 22 23 22 23 24 24 22 21 22 22 23 23 22 21 20 20 20 20 20 21 21 22 23 23 21 21 21 22 22 20 20 19 18 18 18 17 17 17 17 16 16 16 17 17 17 16 16 17 17 17 17 17 17 17 17 17 17 17 17 17 17 17 17 17 18 18 18 18 17 17 17 17 18 18 18 18 17 17 17 17 17 17 16 16 16
20 20 22 22 22 23 24 24 23 23 23 23 24 23 21 21 20 20 20 20 21 21 21 22 22 21 21 21 22 21 19 18 18 18 17 17 17 17 17 16 16 15 15 15 16 16 16 16 16 16 16 16 16 16 16 16 16 16 16 16 16 17 17 17 17 17 17 17 17 17 17 17 17 17 17 17 17 16 17 17 17 17 17 16 16 16
20 20 22 23 23 23 23 24 25 24 22 23 25 24 22 23 22 21 20 21 21 21 21 21 21 21 20 20 21 20 19 18 18 17 17 17 16 17 16 16 15 15 15 15 15 16 16 16 15 15 15 15 16 16 16 16 16 16 16 16 16 16 17 17 17 17 17 16 17 17 16 16 16 16 16 16 16 16 17 16 16 17 17 16 16 16
20 21 23 23 23 24 24 24 25 24 23 23 23 22 23 25 24 21 20 21 21 21 20 21 21 21 20 19 20 19 19 18 17 17 17 16 16 16 16 15 14 14 14 14 15 16 16 15 14 14 15 15 15 15 15 15 15 15 15 15 16 16 16 17 17 17 16 16 16 16 16 16 16 15 16 16 16 16 16 16 16 16 17 16 16 16
21 21 23 23 22 23 25 25 25 25 25 23 22 23 24 25 24 22 21 20 20 20 20 20 21 21 20 20 20 19 19 18 17 16 16 16 16 15 15 14 14 14 14 14 15 16 16 15 14 14 14 15 15 15 15 15 14 15 15 14 15 15 15 16 16 16 16 16 16 16 16 16 16 16 16 16 16 16 16 16 15 16 17 17 16 16
22 21 21 23 23 23 24 24 23 24 25 24 23 25 24 21 21 22 21 20 20 20 20 20 21 21 21 21 20 20 20 18 16 16 16 16 15 15 14 14 14 13 13 13 14 14 15 15 14 14 14 15 15 14 14 14 14 14 14 14 15 15 15 15 15 16 16 16 16 16 16 16 16 16 16 16 16 16 16 16 16 16 16 16 16 16
22 21 20 23 24 23 23 23 22 22 23 24 24 25 24 22 22 22 21 21 21 20 20 20 20 21 22 22 21 21 21 18 16 16 16 15 15 14 14 14 13 12 12 12 13 13 14 14 14 14 15 15 15 14 14 14 14 14 14 14 14 15 15 15 15 15 16 16 16 16 16 16 16 16 16 16 16 16 16 16 16 16 16 16 16 16
22 21 20 21 23 22 22 22 22 22 22 22 22 22 23 23 23 23 22 22 21 21 20 20 20 21 22 23 23 22 21 18 16 15 15 14 14 14 14 13 12 11 11 12 13 13 14 15 15 15 15 15 15 14 14 14 14 14 14 14 14 14 14 14 15 15 15 15 15 16 16 16 16 15 15 16 16 16 16 16 16 16 16 16 15 16
22 21 20 20 21 21 22 23 24 24 24 23 22 22 23 22 22 22 21 22 22 21 21 20 21 21 21 22 23 22 20 18 16 15 14 14 13 13 13 12 11 11 11 11 12 13 14 15 15 15 15 15 15 15 14 14 14 14 14 14 14 14 14 14 14 14 15 15 15 15 15 16 15 15 15 16 15 15 15 15 16 16 16 16 16 16
21 22 21 20 21 22 22 23 22 23 24 25 24 24 24 23 22 21 20 21 21 21 21 21 21 20 19 21 22 20 18 17 16 15 14 13 13 12 12 11 11 11 11 11 11 12 14 14 14 15 15 15 15 15 15 15 15 14 14 14 14 14 14 13 13 14 15 15 15 15 15 15 15 15 15 15 15 15 15 15 15 16 15 16 16 16
20 22 21 20 22 22 22 22 22 22 23 24 24 25 25 24 24 23 22 22 21 21 21 21 21 19 19 20 20 18 17 17 16 16 15 13 12 12 11 11 11 11 11 11 11 12 13 13 14 15 15 15 15 15 15 15 15 14 14 14 13 13 13 13 13 14 14 15 15 15 14 14 14 15 15 15 15 15 15 15 15 16 16 16 16 16
20 21 21 20 20 20 20 21 21 21 22 23 23 24 24 24 24 24 23 23 21 21 21 21 21 19 18 18 18 17 16 15 15 16 15 14 12 11 11 11 11 11 11 11 11 12 12 13 13 14 14 14 14 15 15 15 15 14 13 13 13 13 13 12 12 13 14 14 14 14 14 14 14 14 15 15 15 15 15 15 15 16 16 16 16 16
20 20 21 20 19 19 19 19 20 21 22 22 22 22 22 23 24 23 22 21 21 21 21 21 20 18 16 16 16 16 15 14 14 14 14 13 13 11 11 11 11 11 10 10 11 11 12 12 12 13 13 14 14 14 15 15 15 14 14 13 13 13 13 12 12 13 13 13 13 14 14 14 14 14 14 15 15 15 15 15 15 15 16 16 16 16
20 19 19 19 19 19 18 18 18 20 21 21 21 21 21 22 23 23 22 21 21 21 21 22 20 17 16 16 15 15 15 13 13 13 13 12 12 11 11 10 10 10 10 10 10 11 11 11 12 12 12 13 13 13 14 14 14 14 14 13 13 13 12 12 13 13 13 13 13 13 13 13 14 14 14 14 15 15 15 15 15 15 15 15 15 15
20 18 17 17 16 16 16 16 17 19 21 21 20 20 20 20 21 22 21 22 22 21 20 21 21 19 17 16 15 14 14 13 12 12 12 12 11 11 11 10 10 10 10 10 10 10 10 11 11 12 12 13 13 13 14 14 14 13 13 13 13 12 12 12 13 13 13 13 12 13 13 13 13 13 14 14 14 15 15 15 15 15 15 15 15 15
21 19 17 16 15 15 15 16 17 18 19 19 19 19 19 20 21 21 21 21 22 21 21 21 21 20 19 17 15 14 14 12 12 12 12 11 11 11 11 10 10 10 10 9 10 10 11 11 12 12 12 13 13 13 13 14 13 13 13 13 12 12 11 11 12 12 12 12 12 12 12 13 13 14 14 14 14 14 14 14 15 15 15 15 15 15
20 18 16 17 16 15 16 16 17 18 18 18 18 18 19 19 20 21 20 20 21 21 22 22 19 17 17 16 14 13 13 12 11 11 11 11 11 11 10 10 9 10 10 9 10 11 11 11 12 12 12 12 13 13 13 13 13 13 13 12 12 11 11 11 11 12 12 13 13 12 12 13 14 14 14 14 14 14 14 14 14 14 14 15 15 14
19 16 16 18 17 16 16 16 17 18 18 17 17 18 18 19 19 19 19 19 21 22 21 20 17 13 13 13 12 11 11 11 10 10 10 10 10 10 9 9 9 9 9 9 10 10 10 11 11 11 12 12 12 13 13 13 13 13 13 12 12 11 12 12 12 12 13 13 13 12 12 13 14 14 14 14 14 14 13 14 14 14 14 14 14 14
18 16 16 18 18 16 16 16 17 17 17 17 16 16 17 18 17 17 16 16 19 21 20 19 18 15 11 11 11 10 10 10 9 9 9 9 9 9 8 8 8 8 9 9 10 10 10 11 11 10 11 11 12 13 13 13 13 13 12 12 12 12 12 13 12 12 12 12 12 12 12 13 13 13 14 14 14 14 13 13 13 13 14 14 13 13
19 16 16 19 19 17 16 17 17 18 19 18 15 13 15 17 16 16 15 14 15 18 19 19 18 14 11 10 10 9 9 9 9 9 8 8 8 8 7 8 8 8 8 9 9 10 10 10 10 10 10 10 11 12 12 12 13 12 12 13 12 12 12 13 12 12 12 12 12 12 12 13 13 13 13 14 13 13 13 13 13 13 13 13 13 13
19 18 18 20 19 17 16 17 17 18 19 16 12 11 13 15 16 15 14 13 13 14 16 15 14 12 11 11 10 9 8 8 7 8 8 8 8 7 7 8 8 8 8 9 9 10 10 10 10 9 9 10 10 11 11 12 12 12 13 13 13 12 12 13 12 12 11 11 11 12 12 12 13 13 13 12 12 12 12 12 12 12 12 12 12 12
19 19 19 20 19 17 16 16 17 18 16 12 11 12 13 14 15 14 12 12 12 13 13 12 11 11 11 11 10 8 7 7 7 7 7 8 8 7 7 7 7 8 9 9 9 9 9 9 9 9 8 9 9 11 12 12 12 13 13 13 13 13 13 13 12 11 11 10 10 10 11 12 12 13 12 12 11 11 11 11 11 11 12 12 12 12
19 19 19 19 19 17 16 17 17 15 13 11 12 13 13 14 14 14 13 12 12 13 13 11 10 10 9 9 8 7 7 7 6 6 6 7 7 7 7 7 7 8 9 9 8 9 9 9 8 8 8 8 9 11 12 12 12 13 13 13 13 13 13 13 12 11 10 9 9 9 10 11 12 12 12 12 11 10 10 10 10 11 11 12 11 11
20 20 19 18 17 17 18 18 16 14 13 13 13 13 14 14 15 16 16 13 12 13 13 11 9 8 8 7 7 7 8 8 6 6 6 7 7 7 7 7 7 7 8 8 8 8 9 9 8 7 7 8 10 11 11 11 12 12 13 13 13 13 13 12 12 12 11 9 9 9 9 10 11 11 12 11 11 10 10 10 10 10 10 11 11 11
19 19 19 18 17 18 19 17 15 16 16 15 14 14 14 14 15 16 16 14 13 13 13 11 9 8 7 7 7 8 9 9 7 6 6 7 7 7 7 7 7 7 7 8 8 9 9 9 8 8 8 9 10 10 11 11 12 12 12 12 12 13 13 12 12 12 11 10 9 8 9 9 10 10 11 10 10 10 9 9 9 9 9 11 11 11
19 19 20 19 17 18 19 18 17 17 16 14 14 13 14 14 14 15 16 15 13 13 14 12 10 8 7 7 7 8 10 10 7 5 6 7 7 7 7 7 7 7 7 8 9 9 9 9 9 9 9 9 10 10 11 11 11 12 12 12 12 12 12 11 11 12 11 10 9 8 8 9 9 9 10 10 10 10 9 9 9 9 9 10 11 11
18 19 19 19 18 18 18 19 18 16 14 14 13 13 14 13 12 14 17 15 12 12 13 12 10 9 8 8 8 8 10 10 8 5 6 6 6 6 7 6 7 7 7 8 8 9 9 9 9 9 9 9 10 10 11 11 11 11 11 11 11 11 11 11 11 12 12 10 9 8 8 8 8 9 9 9 9 9 9 9 9 9 9 9 9 10
17 18 18 18 18 18 18 18 17 15 13 13 13 13 13 13 13 16 16 14 12 12 12 12 11 10 9 9 9 7 7 8 6 4 5 6 6 6 6 6 6 6 7 7 7 9 9 9 9 9 9 9 9 10 10 11 11 11 11 11 11 10 10 10 10 11 11 10 9 8 7 7 8 8 8 8 8 8 8 8 8 8 8 9 9 9
16 16 17 18 18 18 17 18 17 14 12 12 13 13 13 13 15 14 12 11 12 12 11 11 10 10 9 8 8 6 5 6 5 4 5 6 6 6 6 6 6 6 6 6 7 8 9 9 9 9 9 9 9 9 10 10 11 11 10 10 10 10 10 10 10 10 11 10 9 8 7 7 8 8 7 7 7 7 7 7 8 8 8 8 8 8
16 16 17 17 16 16 17 17 17 15 12 12 13 13 13 13 13 11 10 11 11 11 10 10 9 9 8 7 6 6 5 5 5 5 5 5 5 6 6 5 5 5 6 6 6 7 8 9 9 9 9 9 9 9 9 10 10 10 10 10 10 10 10 10 10 10 10 10 9 9 8 7 7 7 7 8 7 7 7 6 7 7 7 7 7 7
14 15 17 16 14 16 17 15 13 11 11 11 12 12 11 11 11 11 11 11 10 9 9 9 8 8 8 6 6 5 5 5 5 5 5 5 5 5 5 5 5 5 6 6 6 7 7 8 9 9 8 8 8 9 9 10 10 10 10 10 10 10 10 10 10 10 10 10 10 9 9 8 7 7 7 7 8 7 7 6 6 6 6 6 6 6
12 12 14 14 11 12 13 11 8 8 9 10 10 10 10 10 11 12 11 10 10 9 9 8 7 7 7 6 6 5 5 5 5 5 5 5 5 5 5 4 4 5 5 6 6 7 8 8 8 8 8 8 8 8 9 9 9 9 9 9 9 10 10 10 10 10 10 10 10 9 9 8 8 7 6 6 6 7 6 6 6 5 5 5 6 6
11 11 13 12 9 9 9 8 7 8 9 9 9 9 9 10 10 11 11 10 10 10 9 8 7 6 6 6 6 5 6 5 5 5 5 5 5 5 4 4 4 4 5 6 7 8 8 8 8 8 8 8 8 8 9 9 9 9 9 9 10 10 9 9 9 10 9 9 9 9 9 8 8 7 6 6 6 5 5 6 6 6 5 5 5 5
11 12 13 12 10 11 10 8 7 8 8 8 8 8 9 10 10 10 10 10 10 9 8 8 7 7 7 7 6 6 6 5 5 5 5 5 5 5 4 5 5 5 6 7 7 8 9 9 9 9 8 8 9 9 9 9 9 9 9 10 10 10 9 9 9 9 9 9 9 9 8 8 7 7 6 5 5 5 5 5 6 6 6 6 5 5
12 12 13 12 10 10 9 7 7 8 8 8 8 8 8 9 9 9 9 9 9 9 8 8 7 7 7 7 7 6 6 6 6 6 6 6 6 5 5 5 5 5 6 7 7 8 9 9 9 9 9 9 9 9 9 9 9 9 9 10 10 10 9 9 9 9 9 9 9 9 8 7 7 7 6 5 5 4 4 4 5 5 5 5 5 5
12 12 13 12 9 7 7 6 7 7 7 7 7 7 8 8 8 9 9 9 8 8 7 7 7 7 7 7 7 7 6 6 7 7 6 6 6 6 5 5 5 6 6 6 7 8 9 9 9 9 9 9 9 9 9 9 9 9 9 9 10 9 9 9 9 9 9 9 9 9 8 8 8 7 7 6 5 4 4 4 4 4 5 5 5 6
12 13 12 11 10 9 9 8 8 9 8 6 6 6 7 7 7 7 7 7 7 7 7 6 7 7 7 7 7 7 7 7 7 7 7 6 6 5 5 5 5 5 6 6 7 7 8 9 9 9 9 9 9 9 9 9 9 9 9 9 10 10 9 9 9 9 9 9 9 9 9 8 8 8 8 7 6 5 5 5 5 5 5 5 6 6
11 12 12 11 12 12 11 9 9 10 8 6 5 6 6 6 7 6 6 6 6 6 6 6 6 6 7 7 7 8 8 8 8 8 7 7 6 5 5 5 5 6 6 7 7 7 7 8 8 9 9 9 9 9 9 9 9 9 9 9 10 10 10 10 10 9 9 9 8 8 9 9 9 9 9 9 8 7 6 6 5 5 6 6 6 6
Height
764 770 771 766 762 760 759 756 753 752 752 754 757 759 760 763 761 756 759 759 755 761 762 761 763 762 765 769 769 769 769 770 771 773 773 771 771 772 774 778 780 782 784 787 790 792 794 795 797 799 800 801 803 804 806 807 808 809 810 811 812 813 814 815 816 817 818 818 819 820 820 819 819 820 821 821 821 821 820 821 822 822 822 822 822 823
764 769 765 759 756 754 756 755 754 757 756 755 757 758 758 758 756 756 760 761 757 760 762 761 764 767 770 772 772 770 771 773 774 775 775 772 771 772 774 778 780 782 786 788 791 793 794 795 797 799 800 801 802 804 806 806 808 809 810 811 812 813 814 815 816 817 817 817 818 818 818 817 817 818 819 820 820 819 819 820 820 820 820 821 821 822
769 766 757 753 752 752 756 756 758 762 760 758 756 758 761 754 754 762 762 760 759 760 763 764 767 771 772 773 774 774 774 776 776 776 777 775 774 774 775 778 779 782 786 788 791 793 794 795 796 798 800 801 802 804 805 806 808 809 810 811 812 813 813 814 815 816 816 816 817 817 816 816 816 816 817 818 818 818 818 819 819 819 819 819 820 821
768 760 750 748 750 754 759 760 762 764 762 760 756 759 761 753 758 769 766 763 762 761 762 763 766 771 773 774 775 776 776 777 777 777 777 777 778 777 776 778 779 782 785 787 790 792 794 795 796 798 799 800 802 803 805 806 807 808 810 810 811 812 813 814 815 815 815 815 815 815 814 814 815 815 816 817 817 817 817 817 817 817 817 818 819 819
758 749 744 748 752 755 761 763 762 765 764 760 755 756 756 753 756 761 762 763 765 765 762 762 771 774 771 773 775 775 776 776 776 777 778 779 779 778 778 779 780 782 784 786 790 793 794 795 796 797 799 800 801 803 804 806 807 808 809 810 811 811 812 813 814 814 815 815 815 815 814 814 814 815 815 816 816 816 816 816 816 816 816 817 818 818
750 742 743 751 754 754 759 763 761 762 764 762 758 753 751 754 756 757 761 765 772 774 763 762 779 781 770 771 775 774 775 777 777 777 779 780 780 780 781 782 784 785 786 787 790 793 794 794 796 797 798 800 801 803 804 806 807 808 809 810 810 811 811 812 813 814 814 815 815 815 814 813 813 813 813 814 814 815 815 815 815 816 816 816 817 817
743 741 745 752 754 754 758 760 757 756 761 764 759 752 752 754 756 759 761 765 772 772 761 759 773 780 775 772 773 775 774 776 778 778 779 781 782 783 785 786 788 788 789 790 792 793 794 795 795 797 798 800 801 803 805 806 807 808 809 810 810 810 811 811 812 813 813 814 814 814 813 811 811 811 812 812 813 814 815 815 815 815 816 816 816 816
741 746 749 749 752 755 757 757 753 752 758 759 751 752 757 756 758 760 761 763 759 760 765 762 761 771 776 773 771 774 774 775 778 780 781 781 783 785 786 789 790 790 791 791 792 793 794 795 795 797 799 800 802 803 805 806 807 808 809 809 809 810 810 810 811 811 812 812 812 812 812 811 810 810 811 812 813 814 814 814 815 815 815 815 816 816
741 749 750 749 752 754 752 749 747 750 755 751 746 752 755 756 759 757 759 760 753 762 775 765 758 770 774 771 772 773 773 777 781 782 784 784 785 786 788 790 791 792 792 792 793 795 795 796 797 798 800 801 803 804 805 806 807 808 808 808 809 809 809 809 809 810 810 810 810 810 810 810 810 809 810 811 811 812 813 813 814 815 815 815 815 815
740 743 742 745 750 749 746 742 744 751 752 747 748 753 753 756 759 757 760 759 759 774 777 760 760 769 772 772 773 773 773 776 781 783 786 787 788 790 790 792 792 793 793 794 795 797 797 798 799 800 801 802 803 803 805 805 806 807 807 807 808 808 808 808 808 809 808 809 809 809 809 809 809 809 809 810 810 810 811 812 813 814 815 815 814 814
737 737 737 740 742 740 740 740 743 748 747 748 753 756 759 761 760 761 761 757 769 785 771 753 754 761 770 771 765 770 773 772 777 783 788 790 791 794 794 794 795 795 796 797 797 798 799 799 800 800 801 802 803 803 804 805 805 806 806 807 807 807 807 807 807 807 807 808 808 807 808 808 808 808 808 808 808 808 809 810 811 813 814 814 813 813
740 743 740 737 736 735 739 744 746 745 746 751 755 757 766 770 769 772 771 767 782 788 764 748 751 758 769 769 762 771 777 773 776 783 790 794 795 797 797 796 798 798 798 798 798 799 799 800 800 801 802 802 803 803 803 804 805 805 806 806 806 806 807 807 807 806 806 806 806 806 806 806 806 806 806 806 807 807 808 809 810 811 812 812 811 812
743 742 739 739 737 735 742 750 752 751 750 753 753 758 771 779 783 786 782 779 785 779 757 747 756 765 771 769 767 775 780 778 782 786 792 796 797 799 800 799 800 799 800 799 798 799 799 800 801 801 803 803 803 803 803 804 804 804 805 805 805 805 806 806 806 805 805 805 805 805 805 805 805 805 804 804 805 806 807 807 808 808 809 809 808 809
748 741 737 741 742 737 739 747 756 757 755 754 753 758 768 775 790 796 784 781 782 772 759 754 761 771 776 776 773 777 784 786 788 793 796 798 799 801 801 801 802 802 802 802 801 801 801 802 802 802 803 803 803 803 803 804 804 804 805 804 805 805 805 805 805 804 804 804 803 804 803 803 803 802 802 802 802 803 804 805 805 805 804 803 803 803
752 750 741 741 741 738 738 738 744 749 752 752 745 748 757 759 775 785 776 776 776 768 767 769 770 771 775 779 776 779 789 791 792 796 797 800 801 801 802 803 804 805 806 806 804 804 804 804 804 804 804 804 804 804 804 804 804 804 805 805 805 805 804 804 804 803 803 802 802 802 802 802 801 801 800 800 800 801 802 802 802 801 799 798 797 797
745 745 732 731 732 732 739 734 731 742 752 749 740 745 753 743 749 767 769 764 762 765 773 775 772 770 775 782 778 781 790 792 796 798 797 802 802 801 803 805 807 809 808 808 807 805 805 805 806 807 806 806 806 806 805 805 805 805 805 805 805 804 804 803 803 802 802 802 801 801 801 800 800 799 799 798 799 800 799 798 798 798 796 795 794 794
741 737 723 728 732 728 733 731 728 738 746 747 746 749 745 732 737 761 773 765 761 772 780 773 772 778 785 788 783 785 792 793 798 800 799 803 803 803 806 807 810 812 811 811 809 807 807 808 809 809 808 808 807 807 807 806 806 806 805 805 804 804 803 802 802 801 801 801 801 800 800 799 798 798 797 797 798 797 796 795 794 794 794 793 793 792
733 735 726 729 736 730 726 728 730 730 732 744 751 744 738 741 744 752 766 774 773 778 781 774 771 776 781 785 785 787 792 795 799 801 801 803 804 806 809 811 813 813 813 813 811 809 809 810 811 811 810 809 808 808 808 807 807 806 806 805 805 804 803 802 801 801 801 800 800 799 799 798 797 796 795 795 795 794 793 792 792 792 792 792 792 791
725 736 734 726 730 731 726 731 738 734 729 735 739 732 738 757 760 753 761 776 777 777 781 776 770 768 767 774 783 785 787 794 800 801 801 804 806 809 811 812 814 814 815 814 813 811 811 812 813 812 811 810 809 809 808 808 808 807 806 806 805 804 803 802 801 800 800 799 799 798 797 796 795 794 794 793 792 791 791 791 791 790 790 790 790 790
722 735 740 727 723 729 731 735 741 742 737 733 732 731 736 745 749 749 752 758 764 772 779 781 780 770 756 759 773 777 778 789 798 801 802 805 808 810 811 813 814 816 817 816 815 814 813 814 813 812 812 811 810 810 809 809 808 807 806 805 804 803 802 801 801 800 799 799 798 797 796 794 793 792 792 791 790 790 790 790 790 789 788 787 788 788
724 733 740 733 727 732 736 734 731 734 737 739 739 739 740 738 737 741 744 742 749 761 772 783 785 769 753 755 762 765 773 786 796 801 804 807 809 811 811 814 817 818 818 817 816 815 814 815 814 813 813 812 811 811 810 809 808 807 806 805 804 803 802 802 801 800 799 798 797 796 795 793 792 791 791 790 789 789 788 788 788 788 787 786 786 787
724 728 734 737 736 735 730 723 722 723 725 731 735 734 736 739 738 747 755 745 738 745 756 769 774 767 762 760 755 761 775 786 794 801 807 809 811 812 814 816 818 819 819 819 818 817 816 815 814 814 813 812 812 811 810 809 808 807 806 805 804 804 803 802 801 800 799 798 797 795 794 792 791 790 790 789 788 787 787 787 787 787 786 785 785 785
721 721 728 734 732 729 725 723 725 724 719 722 726 724 727 732 735 747 757 750 743 745 746 750 760 771 772 762 758 769 780 786 793 799 805 811 812 814 817 818 819 820 820 820 819 818 817 816 815 814 813 813 812 811 810 809 808 807 806 806 805 804 803 803 801 800 799 797 796 795 793 792 790 790 789 787 787 786 786 786 786 786 785 784 784 784
723 722 728 733 728 726 728 727 727 727 725 727 726 722 723 726 728 732 735 738 746 752 749 750 763 777 777 767 768 779 784 789 795 797 801 809 814 817 819 819 820 820 820 821 820 820 819 818 816 815 814 813 813 811 811 810 809 808 808 807 806 805 804 803 802 800 799 797 796 795 793 791 790 788 787 787 786 785 785 785 785 785 784 784 784 784
726 724 728 739 744 744 744 740 737 734 732 730 727 726 726 724 726 730 729 734 745 747 745 750 763 776 780 778 779 784 788 794 797 798 801 806 812 817 819 820 821 821 822 822 821 821 820 819 818 817 816 815 814 813 812 811 811 810 809 809 807 806 805 803 802 801 799 797 795 794 792 791 789 788 786 786 785 784 784 784 784 784 784 783 783 783
727 728 728 737 746 750 752 748 743 736 732 732 732 733 733 729 730 734 735 741 749 747 742 746 763 780 785 785 786 788 792 799 801 802 805 808 812 816 818 821 822 822 824 824 823 823 821 821 820 819 818 817 816 815 814 813 812 811 810 809 808 807 805 804 803 801 800 798 795 794 792 790 789 787 786 785 784 784 783 783 783 783 783 783 782 782
729 735 736 737 739 742 745 746 742 734 732 737 740 738 737 736 734 733 738 742 744 747 746 744 758 781 787 786 791 793 794 801 805 806 808 811 814 816 818 822 823 824 825 825 824 825 823 823 823 821 821 820 818 817 816 815 814 812 812 810 809 808 806 805 804 802 800 798 796 794 792 791 789 787 786 785 784 783 783 783 783 782 782 782 781 781
727 738 743 746 749 751 752 752 747 739 735 738 740 741 742 743 740 738 741 739 735 744 754 747 750 768 778 783 791 795 796 802 807 808 810 813 816 817 819 823 824 825 826 826 826 826 825 825 824 823 822 821 820 819 817 816 815 814 813 812 810 809 807 806 805 802 800 798 796 795 793 791 789 787 786 785 784 784 783 783 782 782 781 780 780 780
724 738 746 748 754 757 754 752 747 743 744 744 744 746 747 746 743 741 743 740 736 743 750 748 750 760 768 779 790 794 797 803 807 810 812 814 816 817 819 823 826 827 827 828 828 827 827 827 825 824 824 822 821 820 818 817 816 815 814 813 812 810 808 807 806 803 801 798 797 795 793 792 790 787 786 785 784 784 783 782 781 780 780 780 780 780
725 741 748 745 752 757 754 752 749 746 748 750 750 750 750 749 746 744 746 746 743 742 741 745 761 773 776 781 790 796 800 804 809 813 814 816 818 819 822 826 828 828 829 830 829 829 828 828 827 826 825 824 823 821 819 818 816 816 815 813 813 811 809 808 807 804 802 799 797 796 794 792 790 788 787 786 785 784 783 781 781 780 780 780 780 780
729 746 747 740 748 757 756 753 751 748 749 753 755 753 750 751 751 750 753 752 746 744 745 753 771 789 795 794 797 803 806 809 814 817 819 820 821 822 826 829 830 831 831 831 831 830 829 828 828 827 826 825 824 822 820 819 817 817 815 814 813 812 811 809 807 805 803 800 799 796 794 792 790 788 787 786 786 784 783 782 781 781 781 780 781 781
730 748 752 741 744 755 757 753 751 750 751 756 762 763 757 755 759 762 764 764 756 750 753 758 767 785 800 804 804 808 811 813 818 821 823 825 825 827 830 832 833 834 833 832 832 831 830 829 829 829 828 827 825 823 822 820 818 817 816 815 814 813 812 810 808 806 804 801 800 797 795 793 791 789 788 787 786 785 784 783 782 782 782 781 782 782
727 745 750 737 739 754 756 751 751 750 748 755 768 775 769 762 764 768 770 774 771 760 758 761 768 783 799 804 807 813 815 818 821 822 824 827 828 830 832 833 834 835 833 833 832 831 831 831 830 830 829 828 826 825 823 821 820 818 817 816 814 813 812 810 808 807 805 803 801 798 796 794 792 790 789 788 787 786 786 785 783 783 783 782 783 784
727 735 736 729 737 754 756 752 754 751 751 766 781 784 777 769 767 770 776 782 781 774 772 776 783 793 800 802 807 814 819 822 825 825 825 826 829 832 833 833 835 835 834 833 833 832 832 832 832 831 830 829 828 826 825 823 821 820 818 816 815 814 812 811 809 808 806 805 802 799 798 795 793 792 790 789 789 788 787 787 785 784 784 783 784 785
728 729 730 728 735 750 756 755 756 757 764 780 788 782 778 774 772 777 785 788 786 783 785 790 795 798 800 804 810 816 821 826 828 828 828 829 830 832 833 835 836 835 834 834 833 833 834 833 833 833 831 830 829 827 826 824 822 821 819 817 816 814 813 811 810 809 807 805 803 801 799 797 795 794 792 791 791 790 789 789 787 786 786 785 785 786
726 727 730 733 738 750 756 752 756 768 779 785 784 780 778 777 776 777 783 788 789 787 788 795 802 805 807 813 817 820 823 825 828 831 833 832 832 833 834 835 836 836 835 835 834 834 834 835 834 834 833 831 830 828 827 825 824 822 820 818 816 815 813 812 811 810 808 806 804 802 801 799 797 795 794 794 793 792 792 791 790 789 788 787 787 787
722 724 729 738 746 747 745 750 764 775 778 778 779 778 776 775 771 769 774 785 789 787 789 798 807 811 815 818 820 822 822 822 829 836 837 835 835 836 836 837 838 838 837 836 835 835 835 836 835 835 834 832 831 830 828 827 826 823 821 819 817 816 815 813 812 811 810 808 806 804 802 800 799 798 797 796 795 795 794 793 793 792 791 789 789 789
723 725 727 738 748 743 739 753 767 767 766 770 774 774 774 774 772 767 771 782 788 787 788 796 806 812 818 820 821 821 817 818 831 840 838 837 837 837 838 839 839 839 839 837 836 836 836 836 836 836 835 834 832 831 830 829 827 825 823 821 819 818 816 815 814 813 811 810 808 806 804 802 801 800 799 798 798 797 796 796 795 795 794 792 791 792
729 728 726 734 745 743 741 749 754 756 764 770 773 776 777 776 776 773 770 777 787 789 788 794 804 811 815 818 820 819 813 816 832 841 839 837 839 838 839 840 840 840 840 838 837 837 837 837 837 837 836 835 834 833 831 830 829 827 825 823 822 821 818 817 817 815 813 812 810 808 806 804 803 802 801 800 800 799 799 798 798 797 796 795 794 793
734 732 732 736 742 743 743 743 746 758 770 774 775 778 777 777 780 776 770 776 789 792 789 793 802 808 812 815 817 819 816 816 828 840 840 839 840 840 840 841 841 841 840 839 839 838 838 839 838 838 837 836 836 834 833 832 830 828 827 826 824 823 821 820 820 818 816 815 813 811 808 807 806 805 803 803 802 801 801 800 800 800 799 799 798 796
741 738 737 738 740 744 746 745 750 764 774 775 776 778 778 780 779 772 772 782 791 793 793 797 802 807 812 814 816 822 824 822 828 838 841 841 841 840 841 842 842 842 841 840 840 840 840 840 839 839 839 838 837 836 834 833 831 830 829 828 826 825 824 823 823 821 819 818 816 814 811 809 808 807 806 806 805 804 804 803 803 802 802 802 802 800
745 746 743 741 741 744 746 746 752 766 778 779 779 780 780 778 774 777 787 794 793 795 798 802 806 809 813 816 819 826 830 830 833 838 841 842 842 842 843 844 843 843 843 841 841 841 841 841 841 841 841 840 839 838 836 835 833 831 831 830 829 829 828 826 825 824 822 820 819 817 815 813 811 809 809 808 807 807 806 806 805 805 805 805 805 803
747 746 742 746 752 750 749 751 754 765 779 783 780 780 782 781 782 790 798 797 795 800 803 806 811 813 815 820 825 828 831 833 836 839 841 843 843 843 844 845 845 845 844 843 844 843 842 842 842 842 842 842 841 839 838 837 835 834 833 833 832 832 831 829 827 826 825 824 822 820 819 818 815 813 812 812 811 810 809 809 808 808 807 807 807 806
753 749 740 747 758 752 747 757 770 778 784 785 783 783 787 790 792 793 794 797 801 805 807 810 815 816 817 822 827 830 833 836 838 841 842 843 844 845 846 847 847 847 846 846 847 845 844 844 843 844 844 844 842 841 840 838 837 836 836 835 835 834 833 832 831 829 828 827 825 824 824 822 820 818 817 816 815 813 813 813 812 811 811 811 811 811
762 763 754 758 772 770 764 775 790 794 792 791 791 792 793 795 795 792 794 799 803 805 809 813 817 819 821 824 827 831 835 837 839 842 843 844 846 847 848 849 849 849 849 849 849 847 845 845 845 845 845 845 844 843 842 841 839 838 838 838 838 837 836 835 833 832 831 830 829 828 828 826 825 824 822 821 819 818 818 818 817 816 816 816 816 816
769 770 762 767 782 785 784 791 796 795 794 795 796 797 797 797 797 796 798 801 803 806 810 814 818 822 824 825 828 832 836 838 841 843 844 846 848 849 850 851 851 851 851 851 849 848 846 846 847 847 847 846 846 844 843 843 842 841 841 841 840 839 838 837 836 835 834 833 833 832 831 830 830 828 827 826 825 824 823 823 822 822 822 822 821 821
771 767 764 771 778 777 782 795 799 795 797 799 798 800 800 799 799 800 801 804 806 809 812 816 820 823 825 827 830 833 836 839 841 844 846 848 849 851 852 852 852 852 852 852 850 848 848 848 848 849 848 847 846 845 845 845 844 843 843 842 842 841 840 839 838 837 837 837 836 836 835 834 834 833 832 831 830 829 829 828 827 826 827 827 827 827
767 766 765 772 779 782 789 800 801 798 799 800 799 802 803 801 802 804 804 806 809 812 816 819 822 824 827 829 832 834 837 840 842 844 846 848 850 852 853 853 853 853 853 853 851 850 849 849 849 849 849 848 847 847 847 846 846 846 845 844 844 843 842 841 841 840 840 840 839 839 839 838 838 837 836 835 834 833 834 834 833 832 832 833 833 832
766 765 766 773 787 797 801 803 802 801 804 805 804 804 805 805 806 807 807 810 813 816 819 822 824 827 829 831 833 836 838 841 842 844 846 849 851 852 853 854 854 854 854 854 853 852 852 851 851 851 850 849 849 849 848 848 848 847 847 846 846 845 844 844 844 843 842 842 842 842 842 841 841 841 840 840 839 838 839 839 838 838 837 838 837 837
767 766 770 776 783 787 790 795 796 794 799 807 808 807 808 809 809 810 812 814 817 819 821 824 827 830 832 834 836 837 838 841 844 845 847 850 852 853 854 855 856 856 856 856 855 854 855 854 852 852 851 851 851 851 850 850 850 849 849 849 848 847 847 846 846 845 845 845 845 845 845 844 844 844 844 844 843 843 844 844 843 843 842 842 842 841
772 770 772 773 772 772 779 788 790 789 797 808 810 809 811 812 812 814 816 818 820 822 824 825 828 830 833 836 838 838 839 841 843 845 848 851 853 854 856 856 856 856 857 857 856 857 857 856 855 853 853 853 853 852 852 852 852 851 851 851 850 849 849 848 848 848 848 848 848 848 847 847 846 846 846 846 846 846 847 847 847 847 847 846 846 845
Wind_Speed
9 8 10 11 12 14 15 16 13 7 8 11 11 10 9 9 10 8 9 7 6 9 12 12 11 8 5 4 4 3 3 4 4 4 4 5 6 6 6 6 6 6 6 7 6 5 5 4 4 4 5 6 7 7 8 8 7 7 6 4 4 4 3 3 4 6 7 9 9 8 9 11 12 11 10 10 11 11 10 11 11 11 12 11 9 9
10 10 11 13 13 15 16 16 11 6 8 11 10 10 9 9 10 10 9 7 5 6 8 10 9 6 4 4 4 2 4 4 3 3 4 5 5 5 6 7 8 7 6 5 5 4 3 3 4 4 5 7 7 8 7 8 8 7 6 4 3 2 2 4 4 5 6 8 8 7 8 12 14 12 10 9 10 11 10 10 11 11 12 11 9 10
10 11 13 15 14 14 15 14 11 8 9 9 8 9 8 8 8 9 8 8 5 5 7 12 9 6 5 4 5 4 3 4 2 1 1 3 4 5 6 7 8 8 7 5 4 4 4 3 4 5 6 6 7 8 7 7 7 6 5 4 3 1 2 3 3 3 6 8 8 6 7 10 12 12 10 10 10 11 11 11 12 12 11 10 9 10
9 10 14 15 13 15 14 14 14 11 9 9 9 8 8 10 9 8 9 8 4 3 4 11 8 5 5 5 6 5 4 5 4 4 4 2 1 3 5 5 6 7 6 5 4 3 3 3 3 5 6 6 7 7 7 7 6 5 4 4 3 1 2 4 4 4 4 6 6 6 6 8 10 10 9 10 11 12 12 12 13 13 13 13 10 10
10 10 13 14 14 16 15 14 16 11 9 10 11 10 8 11 10 6 9 10 5 2 3 9 8 5 7 7 6 5 4 6 6 6 6 6 4 4 5 5 4 3 3 3 4 3 3 3 4 5 5 5 6 7 7 7 6 5 4 4 3 1 2 4 5 4 4 5 5 5 5 7 9 9 9 10 11 13 12 12 12 12 14 13 10 10
11 10 13 15 15 17 16 14 16 13 9 10 12 11 7 11 11 7 12 11 6 7 9 10 8 6 8 8 7 6 6 7 6 6 8 7 7 6 6 6 5 3 2 2 3 3 3 4 5 5 5 6 7 8 8 7 6 6 5 4 3 2 3 3 3 4 4 5 6 7 8 8 9 10 11 11 11 10 11 11 11 11 12 11 10 10
9 11 14 16 16 18 17 14 17 16 10 8 11 12 7 9 12 10 12 12 7 6 8 9 9 5 8 9 8 6 7 9 7 7 9 8 8 7 7 6 5 4 4 4 4 4 4 4 5 6 6 8 9 9 8 8 7 6 5 4 2 2 3 3 4 5 5 6 7 9 10 10 11 11 10 10 9 8 8 9 9 10 11 10 10 11
9 13 15 17 17 16 14 12 16 17 12 6 12 15 11 9 11 10 11 10 7 4 7 9 11 5 7 9 9 8 8 10 9 8 9 8 9 9 8 7 6 5 4 4 5 4 4 5 6 8 8 9 9 8 7 7 6 5 3 2 2 2 3 4 5 6 7 8 9 10 11 11 11 10 8 8 9 8 8 8 8 9 10 11 11 12
11 15 16 18 17 13 12 13 15 18 13 5 11 15 14 11 10 10 10 9 6 4 6 11 12 8 6 8 8 9 10 10 9 9 9 9 10 10 8 8 7 6 6 5 6 6 6 6 7 8 9 9 9 8 7 6 5 4 2 2 1 2 3 4 5 7 8 9 9 10 11 12 12 11 9 8 9 8 8 9 8 8 9 10 11 12
11 15 17 18 14 11 13 13 14 18 13 5 10 11 11 10 10 9 9 8 6 6 8 12 13 10 5 9 8 9 11 9 8 8 8 9 10 9 8 8 8 7 7 7 8 8 8 8 8 8 8 9 9 8 7 6 5 4 3 2 1 1 3 4 5 6 8 10 11 11 12 12 12 12 10 9 10 10 9 9 8 7 8 9 10 11
9 11 14 15 13 12 13 12 13 18 12 7 9 10 8 8 8 7 7 8 7 8 11 13 15 12 6 9 9 7 6 7 7 7 8 8 9 9 8 8 8 7 7 8 8 9 10 10 9 9 9 9 9 8 7 6 6 5 4 2 1 1 2 4 6 7 9 10 11 11 12 12 13 13 12 11 11 11 10 9 8 6 6 8 10 11
10 10 10 11 12 12 12 10 11 13 11 8 9 9 9 8 6 7 7 8 8 8 11 13 14 12 9 7 8 7 7 5 6 7 8 8 9 9 8 8 8 7 7 7 7 8 9 10 10 10 10 9 9 8 7 6 5 4 3 2 2 1 2 3 5 7 8 9 10 11 11 12 13 13 13 13 12 11 10 9 7 6 6 8 11 10
10 11 12 11 11 11 12 11 9 9 10 10 10 10 9 8 7 9 9 9 9 7 8 11 12 9 4 5 9 10 9 7 7 8 8 9 10 10 9 8 7 7 6 6 6 7 7 8 10 10 10 9 8 8 7 6 5 5 4 4 5 4 3 3 5 6 7 9 9 10 11 12 13 14 14 15 12 10 9 8 7 8 9 9 10 10
9 11 14 13 10 12 13 10 9 9 11 11 11 10 10 9 9 10 10 9 9 7 5 8 10 8 4 7 9 11 9 8 9 9 9 10 10 10 10 9 9 9 8 7 7 8 8 9 10 10 9 9 9 9 9 8 7 7 7 7 6 6 6 5 5 6 7 8 9 9 10 11 12 13 15 15 12 10 10 10 9 11 12 11 10 12
11 10 13 14 10 13 15 12 10 11 11 12 10 10 10 8 8 9 9 9 11 9 7 8 8 7 6 6 8 10 9 9 9 10 11 11 10 9 10 10 9 9 9 9 9 9 10 12 13 12 12 11 11 12 11 10 10 9 8 8 7 7 7 7 7 7 7 7 8 8 9 10 11 13 14 14 12 10 12 14 13 14 15 13 12 13
13 9 13 15 10 15 18 14 12 12 11 10 10 11 10 8 7 5 2 3 7 8 7 7 5 1 4 6 7 9 10 10 10 10 11 10 9 9 9 10 9 8 8 8 9 9 11 13 13 12 13 13 12 13 12 12 11 10 9 8 8 8 7 8 7 8 7 6 8 9 9 10 11 12 13 14 12 12 15 18 16 15 17 15 12 12
11 8 15 16 10 15 19 15 13 13 9 8 9 10 6 3 5 5 3 2 3 8 6 5 5 5 6 6 8 10 11 12 11 11 11 11 11 10 9 8 8 7 7 8 8 9 11 13 12 12 12 12 12 12 12 12 12 11 11 10 10 9 9 8 8 8 7 7 9 10 10 11 11 11 12 13 12 14 18 19 18 17 17 16 14 13
8 7 13 17 13 13 14 13 14 12 9 7 9 10 6 0 3 5 5 5 6 8 5 6 9 9 7 6 9 13 12 13 11 11 12 11 11 10 8 7 7 7 7 8 8 9 11 12 12 11 11 12 12 12 12 12 11 11 10 10 10 10 10 10 9 9 8 8 11 12 12 12 13 13 12 12 12 15 17 18 18 16 16 17 16 14
9 6 10 16 17 13 10 12 13 11 9 8 8 10 8 5 6 6 6 7 9 8 5 8 11 9 8 7 11 16 15 14 13 11 12 11 10 9 8 8 8 7 7 7 8 8 9 10 10 9 10 11 12 12 12 11 11 11 10 9 10 10 10 11 10 10 9 9 10 12 13 13 14 14 13 12 14 16 17 17 17 16 16 18 17 15
8 6 7 12 13 13 10 10 11 10 8 8 8 10 9 7 7 7 6 6 8 8 6 8 9 8 7 7 13 18 16 16 14 12 12 12 10 8 7 7 7 7 7 7 7 7 8 9 10 10 10 11 11 11 11 11 10 10 10 10 11 11 12 12 11 11 11 10 10 11 13 14 13 14 14 13 15 16 16 16 16 17 18 17 15 16
7 6 5 9 9 10 11 10 11 13 11 8 8 10 10 7 6 7 6 5 6 7 7 7 7 7 3 4 11 16 16 15 14 13 12 11 10 8 8 7 7 6 6 6 6 6 7 8 9 9 10 10 10 11 12 11 11 11 12 12 12 12 13 13 12 12 11 11 11 11 12 13 11 11 12 13 14 15 15 15 15 17 17 15 14 16
6 7 6 9 9 10 12 10 8 10 13 11 9 10 11 9 7 8 7 6 5 5 6 7 7 5 3 2 7 13 14 15 15 14 12 10 10 9 8 8 7 7 6 6 6 6 7 8 9 10 11 11 11 13 13 13 13 13 13 13 12 12 13 13 13 12 12 11 12 12 12 12 9 9 11 12 14 15 15 14 15 16 15 14 15 16
2 5 8 9 10 8 8 5 1 3 8 10 8 9 11 10 9 9 8 7 6 4 4 6 6 4 3 0 7 13 14 14 15 15 13 11 10 10 9 8 8 8 7 6 5 6 7 8 9 10 11 12 12 14 14 14 14 13 14 14 13 13 13 13 13 13 13 12 12 12 11 11 9 9 10 12 13 13 12 13 13 15 15 14 16 16
1 5 8 9 8 6 6 4 1 1 5 9 9 9 10 10 10 7 6 8 7 6 6 6 5 5 3 3 9 14 14 14 13 14 14 12 9 9 9 9 8 8 8 6 6 6 7 8 9 9 11 12 13 14 14 14 14 13 14 14 13 14 14 14 13 13 13 12 12 11 10 9 9 9 10 11 12 11 11 12 12 14 15 15 16 15
4 5 8 9 9 7 5 7 7 6 8 8 8 8 7 8 8 5 4 7 8 8 9 7 4 5 6 7 11 14 15 14 13 12 13 12 10 9 9 8 8 8 7 6 7 7 7 8 9 10 11 12 12 13 14 14 14 13 13 14 14 14 15 14 13 14 13 12 12 11 10 10 10 10 10 10 11 11 12 12 11 12 14 14 15 15
4 3 5 8 11 11 10 9 7 8 9 6 5 7 6 7 10 7 6 8 8 8 9 7 3 7 8 9 11 13 15 14 13 12 11 11 10 10 9 8 7 7 6 6 7 6 7 8 9 11 11 11 11 12 12 12 13 12 13 14 14 15 15 14 13 14 13 12 12 12 11 11 10 10 10 10 10 11 11 10 10 11 11 13 15 16
3 1 2 0 4 5 4 2 2 2 8 8 6 8 6 5 6 7 8 8 6 8 8 5 8 11 11 12 12 13 13 13 13 12 11 11 10 10 10 9 8 7 5 5 6 6 6 7 8 10 10 10 11 11 11 11 12 13 13 14 14 15 15 14 14 13 12 12 12 12 12 12 11 10 9 9 10 9 9 9 9 10 10 12 16 18
4 3 3 6 5 3 3 3 4 1 6 8 8 8 7 4 4 7 8 6 6 8 6 6 11 13 13 14 13 13 13 12 12 12 11 10 10 10 11 10 9 7 5 5 6 6 6 6 6 8 9 10 11 11 11 11 12 13 13 14 14 14 14 14 14 14 13 12 13 12 12 12 11 10 8 8 8 8 7 7 8 9 10 13 15 18
5 4 2 4 6 5 4 3 2 4 6 6 7 8 6 4 5 8 5 2 4 6 5 8 10 9 12 15 13 12 12 12 13 12 10 10 10 11 11 10 9 7 6 6 6 6 5 5 6 8 9 10 11 12 12 12 12 13 14 14 14 14 14 14 14 13 13 13 13 13 12 11 11 9 8 7 7 6 6 6 7 8 10 12 14 16
2 4 4 7 8 7 5 3 3 6 9 9 8 7 6 5 3 5 5 4 2 1 5 12 12 9 7 11 13 12 12 12 13 11 11 11 11 12 12 10 9 7 6 6 5 5 5 6 7 8 9 10 11 12 12 12 12 13 13 13 13 13 14 14 13 13 14 14 14 13 12 12 12 9 7 6 6 6 5 5 6 7 9 11 13 13
0 3 6 7 7 6 4 4 4 6 9 10 10 7 7 7 7 7 6 4 3 5 10 15 14 8 4 8 13 13 12 13 13 12 11 10 10 12 11 10 9 7 5 4 4 5 5 6 8 9 10 10 11 11 11 12 12 11 12 12 12 12 13 13 13 13 14 14 14 14 13 13 13 10 8 8 7 6 5 4 4 3 5 7 9 9
2 4 4 6 5 4 3 5 7 8 9 10 10 8 6 6 6 6 5 4 3 6 13 12 9 6 6 9 12 12 12 13 13 12 11 9 10 11 10 9 8 6 4 4 5 5 6 7 8 9 9 10 10 11 11 12 12 12 12 12 11 11 12 13 13 14 15 15 15 15 14 13 13 11 11 10 9 8 5 4 4 2 3 4 4 6
5 7 5 6 5 6 5 5 7 8 8 7 6 5 5 5 6 6 6 6 8 2 7 6 5 8 11 11 12 12 12 12 11 10 10 10 10 10 9 9 8 5 4 5 4 5 6 6 7 8 8 9 9 10 11 11 11 11 12 12 11 10 11 13 13 14 15 16 16 16 15 14 13 12 12 12 11 9 7 5 4 2 1 1 3 7
8 9 6 5 4 6 6 5 5 7 7 3 2 2 3 3 4 5 5 7 9 6 5 7 8 12 12 11 12 12 12 11 10 9 9 9 9 9 9 9 6 4 5 4 4 6 6 6 6 7 8 9 9 9 9 10 10 11 11 11 11 11 11 12 14 15 15 15 16 16 16 15 15 14 13 12 10 9 7 6 5 4 3 2 4 7
8 8 5 3 3 6 6 5 7 7 4 1 1 1 1 2 5 8 8 7 7 8 10 11 11 12 11 10 11 13 13 13 12 11 10 9 8 9 9 8 5 3 4 5 5 6 6 6 6 7 7 9 9 9 9 10 11 11 11 11 11 12 11 12 14 16 16 15 15 16 17 16 15 14 13 11 10 9 8 7 7 7 6 6 7 8
8 7 5 3 4 6 6 6 6 3 2 2 2 3 3 4 7 7 7 6 6 7 9 11 11 11 12 13 12 13 15 15 13 11 9 8 8 8 8 6 4 3 4 5 6 6 6 6 6 6 7 8 8 8 10 11 11 11 12 12 12 13 13 13 14 16 16 16 16 16 17 17 16 15 14 12 11 10 9 8 8 9 9 9 10 10
5 6 5 4 2 3 6 5 3 3 3 3 3 4 4 4 4 2 3 5 6 5 8 11 12 12 12 13 13 13 13 13 11 9 7 8 8 7 7 6 4 3 4 6 7 7 6 6 6 6 7 7 8 9 10 10 10 11 12 13 14 14 15 15 16 17 17 17 17 16 16 17 16 15 14 13 12 11 10 10 9 8 9 11 12 13
1 2 4 4 2 3 5 5 3 4 5 3 5 6 5 2 1 1 1 5 6 6 8 11 13 13 13 12 12 13 11 8 7 5 5 7 7 7 8 7 5 3 4 6 7 7 7 7 7 6 6 7 9 10 10 10 10 11 13 14 14 15 15 16 17 19 18 17 17 15 15 16 16 16 15 14 12 11 10 10 9 9 9 12 14 14
3 1 2 3 3 4 5 6 6 4 2 4 7 8 5 3 1 2 3 4 6 7 8 11 13 13 13 12 12 11 8 5 5 4 5 7 7 8 8 7 5 4 5 7 8 8 8 7 7 7 8 9 10 10 10 10 12 12 14 14 14 15 16 17 18 19 18 17 16 15 14 14 15 16 16 14 13 12 11 10 10 9 10 13 17 18
4 3 3 4 5 5 6 6 3 2 4 5 8 7 6 3 1 4 6 4 7 8 8 10 13 13 12 13 11 6 2 3 6 6 6 8 9 9 8 7 6 5 6 8 9 9 8 8 8 10 10 10 9 9 9 10 12 14 14 15 15 16 16 16 17 18 18 16 16 16 15 13 14 15 16 15 14 13 12 11 11 11 11 12 15 19
3 3 2 4 6 5 6 5 3 4 4 6 7 7 5 3 3 5 3 3 7 9 8 9 11 12 12 11 8 3 4 6 11 10 8 9 10 11 10 8 7 6 8 9 9 8 8 8 9 10 9 9 9 9 9 10 13 15 15 15 16 17 16 15 16 17 18 17 17 18 17 16 15 14 15 15 14 14 14 14 12 11 11 11 12 17
4 3 2 3 4 3 4 5 4 3 2 4 7 6 3 2 2 2 2 4 8 10 9 10 10 11 11 9 8 8 10 13 15 13 10 9 10 11 11 9 8 8 9 10 9 8 8 9 10 10 9 9 9 10 10 11 13 14 14 15 17 16 15 15 16 18 19 19 19 19 19 21 21 18 15 15 16 17 17 17 15 14 13 12 13 16
1 3 5 4 2 2 4 5 3 2 3 5 8 6 1 2 2 4 5 7 9 10 10 11 10 10 11 12 12 13 14 15 14 13 12 11 10 11 10 9 8 8 8 9 9 8 7 9 9 9 9 9 9 10 10 11 13 14 14 15 15 14 14 16 16 18 20 21 22 21 20 22 25 25 23 22 22 22 20 18 18 17 17 17 19 20
3 2 4 4 1 2 5 3 1 3 5 5 4 3 4 4 3 5 7 8 9 9 9 9 9 10 12 14 15 14 14 14 13 13 12 11 11 11 10 9 8 7 7 7 6 6 7 8 9 9 9 9 10 11 11 12 14 14 15 15 14 13 14 15 16 18 19 21 23 24 23 24 26 28 29 30 30 30 28 25 24 22 20 19 20 22
4 4 1 3 3 2 3 4 3 4 6 5 4 5 7 6 5 6 8 9 9 9 9 9 10 12 13 15 15 14 13 13 13 13 12 11 11 10 9 8 8 6 6 6 5 6 8 9 9 10 10 10 10 11 12 13 15 16 16 15 13 13 14 15 16 18 19 20 22 23 23 24 26 28 32 34 36 36 35 33 33 31 27 23 21 20
4 3 2 2 5 5 6 6 5 5 6 6 6 6 6 6 6 8 9 9 9 9 9 10 12 13 13 14 14 14 13 14 14 13 12 11 11 10 9 9 8 6 5 5 5 7 10 11 11 10 10 10 10 11 12 13 14 15 15 14 14 14 14 15 17 18 19 20 21 21 21 22 22 24 27 30 34 38 38 37 37 35 33 30 28 26
2 2 1 4 5 4 3 5 5 5 6 6 6 6 6 7 8 8 8 9 10 11 11 12 14 14 14 14 14 15 15 14 14 13 11 10 11 11 10 10 8 7 6 6 7 9 11 11 11 11 11 11 12 12 12 13 14 14 14 14 14 15 15 16 17 17 18 19 19 20 21 21 21 22 24 26 29 33 36 38 39 38 36 33 32 32
2 3 2 5 4 2 4 6 6 5 6 5 5 6 7 8 9 9 10 11 12 13 14 15 15 14 13 14 15 16 16 14 14 13 11 11 12 12 11 10 9 8 8 8 9 10 12 12 12 12 13 13 14 14 14 13 13 13 14 14 15 16 17 17 17 17 17 18 18 19 19 20 20 21 24 28 32 32 31 31 33 35 34 32 31 31
2 4 4 5 6 5 5 7 7 6 6 5 5 6 7 8 10 12 13 14 15 15 15 16 16 15 15 16 16 16 16 15 15 15 13 12 12 12 11 11 10 9 9 10 10 11 12 13 13 13 14 14 15 15 15 15 13 13 13 14 14 15 16 17 17 17 17 16 17 17 17 17 18 19 20 25 30 32 31 28 27 28 29 28 28 27
3 6 5 5 5 3 5 9 8 5 5 5 6 8 9 10 12 14 14 15 15 15 15 16 16 17 18 18 18 17 15 14 16 17 16 13 13 12 12 11 10 10 10 10 11 12 13 13 14 14 14 14 14 15 15 15 14 13 12 12 13 14 14 16 17 18 18 17 16 16 16 16 17 17 18 19 21 25 27 28 28 28 27 26 25 25
1 3 3 2 1 2 7 11 7 4 7 8 9 10 10 10 12 14 15 15 15 15 16 16 16 17 16 17 19 18 16 16 18 19 17 15 14 14 13 12 11 10 11 11 12 13 13 13 14 14 14 14 13 14 14 14 14 13 12 11 12 13 14 14 15 16 17 17 16 15 15 16 16 16 17 17 17 18 20 23 26 27 27 25 24 23
Wind_Direction
189 197 203 207 202 196 197 203 211 220 206 193 188 198 194 189 199 171 134 136 179 195 186 189 200 189 146 92 66 69 142 190 190 186 219 208 201 199 177 161 153 139 119 113 127 157 187 182 154 136 133 132 131 134 138 144 147 148 152 158 172 192 218 240 231 224 239 249 241 233 238 238 231 227 229 237 245 242 242 243 240 244 252 251 241 238
194 212 208 205 206 197 195 204 205 205 203 195 195 199 196 198 185 162 147 142 186 218 179 180 190 161 117 85 71 69 154 173 198 207 228 226 213 195 177 169 155 135 128 137 143 170 198 175 150 126 119 125 122 127 133 138 145 150 154 156 158 182 249 256 234 219 232 240 233 225 230 233 232 230 228 231 236 237 237 237 234 237 244 246 244 244
200 218 211 203 205 196 192 198 195 195 202 200 203 199 198 197 156 142 150 146 188 231 172 176 188 149 119 94 88 86 116 120 107 137 186 248 228 191 171 166 160 145 145 161 157 179 201 175 157 131 113 118 118 121 123 124 137 148 154 159 157 195 244 228 219 226 242 242 241 248 239 231 234 237 234 229 230 239 243 243 242 242 244 244 242 242
200 213 209 197 193 189 186 191 197 199 205 207 205 200 199 187 164 156 163 155 178 265 180 176 181 146 137 133 113 100 102 117 114 104 96 80 168 176 159 144 153 154 154 164 156 186 203 167 143 126 115 118 120 123 123 119 126 135 144 154 156 247 244 219 213 210 224 231 239 261 253 236 240 243 237 228 227 238 245 248 252 253 249 245 241 240
209 206 195 186 185 190 187 188 196 200 203 208 207 207 196 183 189 180 153 152 158 225 193 176 178 166 165 166 141 125 129 132 129 116 98 89 101 127 126 106 102 126 154 174 159 179 201 168 138 127 118 116 118 119 121 119 119 122 132 151 163 197 246 236 226 212 206 212 218 234 237 232 240 241 233 225 222 230 239 242 245 250 250 245 239 236
217 194 177 184 190 196 194 189 195 200 200 202 208 215 200 179 190 166 146 161 180 193 192 196 203 174 164 172 151 147 149 131 123 116 98 90 97 96 93 86 76 86 93 109 131 148 161 149 136 129 119 112 110 106 108 110 109 111 113 124 143 174 237 235 232 232 221 215 212 215 218 216 222 227 224 222 223 227 232 234 237 243 244 239 234 232
208 171 173 189 190 193 197 195 196 199 206 204 197 207 207 183 189 174 166 184 204 186 175 203 226 179 164 173 152 154 154 131 120 106 97 91 90 87 85 86 83 92 101 106 117 127 131 136 136 124 110 101 98 97 99 102 103 107 109 117 145 193 241 240 240 234 219 215 215 220 227 225 225 227 224 224 228 231 232 234 240 245 245 236 230 231
184 170 183 192 189 192 198 198 193 197 216 206 174 189 202 192 191 187 188 203 208 149 141 196 228 223 182 170 148 160 159 134 124 104 93 89 86 88 90 85 79 78 84 102 108 106 108 115 116 106 98 94 92 93 95 94 93 93 99 121 164 192 229 245 244 228 217 220 219 222 232 235 237 238 233 229 230 231 231 235 243 248 249 242 232 228
171 181 185 188 193 196 199 198 185 195 218 185 154 184 200 198 200 199 202 214 207 184 180 192 213 229 187 156 147 170 170 143 125 104 88 81 79 82 86 82 79 78 75 82 83 78 78 80 84 86 87 86 87 89 89 87 86 86 98 117 142 197 218 227 238 231 224 225 222 222 228 235 243 246 243 240 237 239 237 237 243 245 248 247 239 232
172 190 186 188 197 196 200 197 179 195 213 145 144 182 194 198 209 211 215 216 200 214 216 186 190 217 187 153 166 184 179 156 124 102 83 77 75 75 79 77 75 76 74 76 79 76 74 74 77 79 78 78 81 83 85 87 84 84 95 112 138 238 240 230 237 240 233 230 229 229 231 236 243 247 247 244 240 243 244 244 246 244 246 247 243 237
163 186 191 195 202 197 195 188 178 196 199 142 159 182 180 191 207 212 224 226 206 214 223 192 187 215 210 167 176 172 156 144 125 109 90 82 81 77 77 75 71 71 72 74 79 80 79 78 76 73 71 69 71 74 76 80 80 78 82 75 51 280 279 261 246 242 240 238 237 239 240 241 244 247 249 247 242 239 239 244 247 247 247 247 247 243
166 182 193 197 208 204 189 178 180 194 191 176 188 187 178 183 193 202 211 223 218 214 218 196 186 218 228 176 160 131 111 110 114 113 104 96 90 83 79 77 75 73 74 76 78 78 75 73 69 66 62 58 56 55 53 58 59 57 63 39 348 306 286 275 259 251 248 244 242 244 245 245 247 250 251 251 249 244 240 239 241 250 253 250 252 248
185 191 186 186 203 206 192 182 181 189 193 201 200 188 185 180 182 200 200 206 216 212 204 182 178 212 220 126 130 127 115 103 97 103 109 105 98 92 85 81 78 72 68 68 70 70 66 62 62 60 57 52 46 41 38 37 33 22 12 355 335 329 323 294 273 264 257 252 250 249 251 252 251 251 252 253 251 244 240 237 231 236 240 244 249 245
188 190 187 188 192 200 204 193 181 186 195 203 201 191 194 185 181 197 195 194 206 198 159 152 173 196 159 114 128 126 110 103 105 105 109 106 100 95 89 84 78 69 60 58 64 65 60 57 55 53 52 51 45 40 38 34 30 23 14 3 349 338 331 317 294 274 262 258 256 253 253 253 252 251 251 250 244 230 227 228 225 229 232 230 227 225
190 190 187 192 187 189 206 208 187 183 192 202 205 202 205 199 190 197 197 195 197 183 141 142 179 201 170 133 126 123 115 113 117 116 112 108 105 99 91 83 74 66 59 58 64 63 58 54 50 45 42 41 42 40 38 34 29 24 17 5 350 334 321 318 310 292 278 266 259 256 254 254 255 255 253 251 246 233 224 223 224 230 234 230 217 214
200 197 176 187 188 182 199 212 196 186 191 198 205 209 212 213 200 188 205 209 190 181 161 161 182 153 126 130 126 132 132 126 124 122 115 109 104 95 85 79 70 63 58 56 61 60 56 54 49 44 41 38 39 38 34 32 29 24 17 5 349 336 322 314 306 299 295 274 261 263 262 261 260 258 256 255 252 242 230 225 224 228 232 231 220 212
201 190 166 175 182 183 195 202 194 195 191 182 202 207 201 227 212 171 118 64 160 182 167 166 170 122 123 152 153 155 146 136 134 126 118 109 99 88 80 79 72 67 64 57 57 57 56 54 49 46 44 40 36 33 29 27 25 22 18 10 357 348 338 329 316 303 296 276 268 271 266 260 254 249 250 252 250 243 235 229 226 226 228 228 221 215
201 182 163 178 184 182 195 194 190 207 206 185 199 192 158 166 241 200 177 152 180 197 171 176 191 171 167 172 161 168 161 144 140 131 121 111 99 95 91 88 79 76 74 64 57 55 56 54 47 41 39 36 32 27 24 22 19 16 13 6 359 354 347 341 335 321 305 286 279 279 273 267 258 251 249 246 243 239 235 232 229 226 227 226 222 219
206 190 162 186 189 172 184 196 189 205 223 220 204 181 173 193 199 202 199 178 191 203 171 180 198 196 196 177 165 178 172 150 143 135 125 115 108 108 105 98 87 77 69 60 56 54 53 48 38 30 27 26 25 21 18 16 13 11 7 0 356 356 353 347 343 336 324 308 295 289 283 277 268 259 252 242 237 234 232 235 234 229 227 226 224 221
208 213 169 185 186 167 176 201 192 186 204 229 211 187 196 214 196 190 193 187 197 198 172 175 194 209 207 170 168 180 171 154 147 137 126 117 113 112 105 97 84 72 62 58 61 60 53 45 35 29 25 24 23 20 17 13 11 9 6 2 360 359 357 353 348 341 335 325 313 301 293 288 279 268 257 245 237 233 234 238 235 230 227 222 218 218
198 222 182 165 167 171 182 198 201 189 183 199 203 190 194 206 201 193 193 201 210 200 179 175 190 199 175 131 168 172 160 150 142 129 121 115 111 106 98 95 84 74 71 67 66 62 53 46 40 35 33 31 29 25 22 19 16 13 10 7 5 2 359 355 350 342 335 328 320 311 302 299 291 274 263 252 240 233 236 240 235 230 227 219 213 216
196 209 184 163 172 191 189 186 206 203 189 190 198 192 190 194 196 191 190 201 218 208 181 181 187 161 90 66 161 151 144 143 134 123 119 116 113 107 98 97 91 82 74 66 60 56 51 47 43 40 37 33 31 27 24 21 19 15 13 9 5 3 359 354 348 341 335 328 322 319 312 309 302 281 267 259 249 239 238 242 239 234 229 218 214 216
219 210 184 174 179 182 163 145 318 260 197 197 206 198 190 194 201 199 189 186 194 194 175 195 194 130 78 67 130 126 134 137 129 125 123 118 112 109 104 98 91 84 75 60 45 42 45 45 42 37 31 28 28 26 22 20 19 14 13 11 6 4 360 354 348 341 337 331 326 324 318 313 306 285 270 264 258 247 240 243 241 235 229 220 216 217
218 209 184 175 173 151 115 118 121 246 200 207 210 206 202 199 204 216 203 181 180 179 180 200 193 132 105 112 115 120 128 128 128 130 126 121 116 113 108 98 90 88 78 60 44 39 36 35 32 27 23 23 25 26 22 19 18 15 15 12 8 4 358 353 349 343 339 337 333 328 322 317 306 289 276 269 264 255 245 244 240 234 231 224 219 217
192 202 184 178 175 167 159 169 178 186 201 211 199 197 215 206 199 215 207 190 193 190 194 208 185 129 119 118 119 123 124 122 125 126 123 124 124 119 110 98 92 90 76 59 55 47 33 29 24 19 19 19 22 25 23 20 18 16 13 9 6 1 356 352 350 344 342 343 341 337 333 328 315 300 288 278 271 262 251 244 240 237 233 229 226 221
189 209 197 194 188 186 188 184 183 186 188 193 182 181 200 204 200 202 199 203 202 188 200 220 166 123 130 135 131 129 125 121 119 118 116 119 120 118 112 103 97 92 75 60 59 46 31 30 23 17 17 17 18 20 17 17 17 13 9 8 8 4 357 352 348 344 345 348 346 344 342 338 326 311 299 289 282 272 260 250 245 242 239 235 232 225
151 54 22 150 180 188 179 135 359 226 180 171 167 170 177 195 208 211 208 209 191 177 199 196 137 138 152 153 146 141 134 126 122 120 120 120 119 115 111 106 99 92 75 63 59 41 32 30 20 15 14 13 14 10 7 10 13 12 11 9 9 6 0 354 350 350 352 353 351 348 344 340 332 320 306 295 291 285 274 264 255 251 245 237 234 229
161 144 64 56 62 57 61 52 3 337 165 161 153 155 161 170 203 212 211 198 174 182 194 154 141 152 162 160 152 147 140 132 128 127 125 125 122 116 112 106 101 95 75 62 56 40 31 24 16 16 15 12 11 7 6 9 12 15 14 9 8 6 1 355 354 356 358 358 356 351 346 340 334 327 316 306 302 296 286 275 267 261 251 242 238 232
177 155 128 96 83 70 68 59 49 99 113 119 123 133 143 159 196 201 191 151 175 199 188 156 150 146 150 154 149 141 136 130 126 125 123 123 121 117 114 107 104 100 80 64 56 44 32 22 19 19 16 13 11 9 8 9 13 17 16 13 10 5 358 353 351 354 359 1 358 352 348 344 340 333 324 319 318 312 299 284 274 262 249 242 239 235
189 126 141 137 104 75 67 68 92 113 113 104 96 102 114 116 135 146 121 87 79 111 137 137 122 90 108 137 132 124 123 120 117 117 119 122 120 117 114 109 108 104 86 67 57 50 35 26 24 19 18 16 10 9 9 7 11 15 15 15 10 3 1 358 354 357 5 7 2 355 352 353 353 350 343 340 337 335 325 298 279 262 248 247 242 235
255 136 160 150 110 78 75 97 113 122 116 103 89 86 105 107 93 93 95 73 71 110 126 126 115 89 73 107 112 114 114 114 115 113 116 120 117 114 111 109 110 108 95 78 67 54 37 32 26 17 15 13 8 10 11 7 8 11 11 12 8 4 6 5 2 4 9 10 7 2 0 3 6 8 8 8 5 4 358 331 311 283 259 258 244 230
132 131 184 195 151 111 106 123 127 126 116 101 88 76 83 100 92 79 72 36 22 128 135 131 127 133 132 116 110 111 114 115 115 115 115 113 110 110 109 108 112 110 91 76 65 50 39 35 27 14 7 3 5 13 13 10 10 9 7 7 4 6 10 9 8 9 10 10 9 8 9 11 14 17 18 20 23 25 23 14 10 342 272 261 220 206
142 139 185 209 165 128 139 143 134 144 145 118 88 64 55 88 102 95 83 42 5 26 140 132 111 123 133 131 119 113 113 111 110 115 118 113 109 108 108 111 113 105 86 77 66 55 46 35 23 12 3 357 1 7 9 9 9 6 4 6 7 11 16 17 16 14 12 12 12 13 14 16 20 23 22 23 24 25 28 34 44 46 322 302 180 180
158 159 177 200 160 137 147 148 160 182 178 142 85 52 39 72 98 100 90 56 28 34 81 87 102 122 133 135 126 118 112 106 103 105 107 111 115 113 111 114 111 101 96 89 75 64 49 33 21 11 1 356 356 358 4 9 6 3 7 12 15 16 19 23 23 20 17 15 13 13 16 18 24 28 27 27 27 28 31 43 68 86 75 93 143 159
163 160 155 166 148 134 139 164 186 190 172 107 147 148 64 72 98 100 91 71 59 77 93 98 111 124 123 118 116 113 109 104 96 88 88 101 111 114 117 116 107 107 109 96 82 67 50 34 21 8 359 355 352 357 10 13 7 7 15 21 22 21 21 25 27 25 21 17 12 11 13 17 23 29 32 33 34 37 39 48 73 89 93 107 123 130
162 152 132 121 120 134 163 190 187 162 109 112 149 147 126 126 131 122 100 88 91 97 107 112 113 112 112 111 110 112 112 104 87 75 78 92 101 110 117 112 96 95 96 86 77 65 51 40 27 8 354 351 357 11 19 13 7 14 22 25 28 28 26 27 28 26 22 16 12 12 14 17 22 28 34 37 39 42 44 47 62 84 96 106 113 114
167 158 143 128 123 175 178 164 117 120 157 165 160 166 165 151 159 165 98 113 134 129 121 126 124 117 116 117 119 124 121 104 83 70 76 90 97 104 107 103 94 82 80 81 77 68 61 52 37 11 352 359 18 26 21 13 13 23 27 27 29 30 29 28 29 27 22 17 14 13 14 18 22 27 33 38 41 45 49 49 52 68 89 102 107 105
117 168 165 157 205 226 177 148 152 180 182 162 140 147 154 146 174 240 118 128 150 154 141 138 135 130 128 129 135 141 135 108 86 84 96 101 104 105 104 101 92 77 77 83 83 78 70 58 44 24 12 24 35 32 26 25 26 32 33 28 28 30 28 27 28 26 22 19 17 14 17 21 23 27 32 37 42 45 48 52 51 50 69 95 104 101
80 91 181 175 177 196 191 186 189 186 137 125 135 139 146 144 131 229 218 160 146 157 154 144 142 142 142 144 148 153 154 138 125 131 130 122 114 109 108 101 87 78 76 78 80 79 71 61 53 43 33 33 35 32 33 38 39 41 38 32 30 31 29 26 27 26 24 23 22 20 22 26 27 29 33 37 41 44 46 50 54 53 63 83 93 95
125 149 183 186 171 180 205 207 185 91 75 119 141 144 144 134 154 220 218 171 143 158 158 147 148 149 148 150 151 152 165 149 141 138 132 124 115 108 105 95 82 76 75 71 69 71 71 63 54 47 35 29 31 32 34 43 48 47 42 37 36 34 28 26 29 31 30 30 30 29 28 31 33 35 38 40 40 43 46 48 53 58 65 74 83 90
133 150 184 198 181 178 201 201 143 85 95 127 140 142 144 167 215 212 201 121 136 151 148 144 147 145 146 151 148 114 62 99 121 127 126 121 113 104 98 90 75 67 68 67 62 67 77 72 60 52 38 27 29 32 36 47 54 51 46 44 40 34 28 27 33 38 38 38 40 39 37 41 44 43 42 43 45 46 47 48 50 54 60 65 73 84
149 148 164 194 180 170 192 190 149 101 91 134 143 143 160 219 205 143 93 115 138 141 136 136 137 137 138 133 120 111 105 108 117 124 124 117 108 101 96 86 70 58 58 62 60 62 75 77 68 60 47 32 28 31 38 50 58 55 50 46 41 35 33 35 39 45 46 45 47 46 46 51 57 56 49 47 51 51 48 49 53 55 58 62 68 77
152 184 180 159 125 154 176 181 171 130 129 155 158 152 143 331 90 111 118 129 131 130 130 131 130 129 125 116 113 117 117 116 119 121 119 114 106 99 91 76 64 57 54 57 54 50 64 77 71 60 48 37 31 31 38 52 60 60 54 48 41 38 41 43 45 50 52 52 53 53 52 55 60 63 63 61 61 60 55 53 56 57 58 61 66 70
25 294 194 142 67 229 185 160 101 100 119 135 146 122 86 69 96 129 129 124 126 130 129 125 123 122 120 119 121 121 119 119 120 120 120 118 108 98 86 70 61 56 57 61 54 50 68 81 78 68 57 44 38 39 44 54 59 59 54 48 43 43 47 48 50 54 55 57 58 59 58 58 59 62 66 68 69 67 63 61 61 59 57 60 65 68
35 1 347 72 47 32 78 83 88 112 114 94 59 76 99 98 104 127 127 125 131 132 128 125 123 121 121 122 123 121 121 121 121 121 120 115 106 99 90 80 68 52 47 52 55 67 77 78 75 72 64 51 45 46 50 53 56 57 54 51 49 51 53 52 54 57 58 58 60 62 63 62 59 60 62 65 69 70 67 65 63 60 58 61 65 68
55 14 345 79 107 99 73 73 99 119 114 91 72 82 103 108 114 122 124 125 128 127 126 126 124 124 126 125 122 122 124 123 121 119 116 110 106 103 98 92 82 64 52 55 67 83 87 83 79 75 66 58 54 53 53 53 55 56 56 55 56 57 57 58 59 61 60 60 60 61 61 61 59 58 59 60 63 67 67 67 67 63 60 60 63 65
94 289 349 109 146 159 103 89 105 121 121 105 87 91 103 111 118 122 122 124 125 122 121 123 125 128 128 126 123 124 125 124 121 118 116 113 111 107 101 97 88 74 71 72 78 88 90 87 85 80 72 66 62 60 58 57 56 56 57 58 60 59 59 60 61 62 63 62 62 60 59 60 59 58 59 60 61 63 64 66 68 67 63 60 60 62
158 222 179 129 134 121 98 113 119 113 111 102 93 106 117 118 120 121 121 123 122 120 120 123 126 127 127 126 126 125 126 126 125 122 119 115 110 105 101 97 89 81 81 77 77 88 93 89 84 78 73 70 66 64 63 59 56 56 56 59 63 62 61 59 59 62 64 64 64 63 61 62 63 62 62 63 64 63 62 61 64 66 65 64 63 63
145 179 162 131 120 98 105 134 136 116 102 95 94 108 118 121 123 123 123 123 122 121 121 122 123 125 127 129 128 127 127 127 125 123 120 112 105 99 94 91 86 78 75 72 71 82 92 92 87 81 76 73 70 67 64 61 58 56 56 60 65 65 63 62 60 61 64 64 65 66 64 64 66 67 66 67 66 65 63 61 61 64 65 65 66 67
170 157 139 141 157 159 156 160 158 137 122 123 116 115 120 125 126 124 123 123 124 125 124 122 122 123 125 128 130 129 127 126 125 124 119 111 105 100 95 93 86 75 75 77 77 82 90 94 93 88 82 78 73 69 66 62 58 57 58 62 67 67 66 67 65 63 63 63 63 65 66 66 67 68 69 72 72 69 66 64 64 65 65 65 65 67
189 157 143 143 106 104 139 154 159 127 118 126 124 120 123 128 128 125 124 124 124 125 126 126 126 126 125 126 127 127 126 126 127 124 118 112 110 107 103 100 95 90 94 95 90 87 88 89 88 84 80 78 75 71 68 62 57 57 58 60 66 69 68 68 69 68 67 65 61 61 65 67 68 68 69 72 74 76 74 70 68 66 65 65 66 68